SKW5250 KSAV-KORD

Flight info

Callsign SKW5250
Flight time N/A
Altitude 31000
Route DCT SMALZ DCT MILEN DCT QUIWE/N0446F320 Q93 HEVAN DCT BONNT VEECK5
Aircraft E75L/M-SDE3GILORVW/S

Departure

Time 2026-04-27 17:22
Airport Savannah Hilton Head International Airport (KSAV)

Arrival

Time N/A
Airport Chicago O'Hare International Airport (KORD)
Time Latitude Longitude Altitude Speed Heading
2026-04-27 17:00 32.13509 -81.20647 61 ft 0 kts
2026-04-27 17:12 32.13498 -81.20647 51 ft 4 kts
2026-04-27 17:13 32.13472 -81.20651 51 ft 4 kts 14°
2026-04-27 17:13 32.13450 -81.20665 51 ft 4 kts 62°
2026-04-27 17:13 32.13447 -81.20676 51 ft 2 kts 89°
2026-04-27 17:15 32.13447 -81.20673 51 ft 1 kts 89°
2026-04-27 17:15 32.13448 -81.20657 51 ft 2 kts 87°
2026-04-27 17:15 32.13448 -81.20630 51 ft 4 kts 89°
2026-04-27 17:15 32.13449 -81.20588 51 ft 6 kts 89°
2026-04-27 17:16 32.13450 -81.20533 51 ft 8 kts 90°
2026-04-27 17:16 32.13447 -81.20465 51 ft 9 kts 94°
2026-04-27 17:16 32.13442 -81.20385 51 ft 11 kts 97°
2026-04-27 17:16 32.13385 -81.20332 51 ft 13 kts 178°
2026-04-27 17:17 32.13283 -81.20331 51 ft 16 kts 179°
2026-04-27 17:17 32.13163 -81.20329 51 ft 18 kts 180°
2026-04-27 17:17 32.13040 -81.20359 50 ft 18 kts 236°
2026-04-27 17:18 32.13039 -81.20671 50 ft 20 kts 271°
2026-04-27 17:18 32.13041 -81.20843 50 ft 21 kts 271°
2026-04-27 17:18 32.13045 -81.21023 50 ft 22 kts 270°
2026-04-27 17:18 32.13046 -81.21209 50 ft 23 kts 271°
2026-04-27 17:19 32.13047 -81.21405 50 ft 24 kts 271°
2026-04-27 17:19 32.13048 -81.21603 49 ft 22 kts 270°
2026-04-27 17:19 32.13049 -81.21784 49 ft 22 kts 269°
2026-04-27 17:19 32.12979 -81.21859 45 ft 6 kts 179°
2026-04-27 17:20 32.12978 -81.21859 45 ft 1 kts 179°
2026-04-27 17:20 32.12938 -81.21858 40 ft 12 kts 179°
2026-04-27 17:20 32.12872 -81.21826 36 ft 5 kts 92°
2026-04-27 17:20 32.12872 -81.21816 36 ft 0 kts 87°
2026-04-27 17:21 32.12874 -81.21778 37 ft 16 kts 88°
2026-04-27 17:21 32.12870 -81.21371 39 ft 84 kts 92°
2026-04-27 17:21 32.12867 -81.20428 40 ft 145 kts 89°
2026-04-27 17:21 32.12883 -81.19109 434 ft 170 kts 86°
2026-04-27 17:22 32.12949 -81.17672 1099 ft 180 kts 82°
2026-04-27 17:22 32.13104 -81.16196 1695 ft 184 kts 87°
2026-04-27 17:22 32.13088 -81.14657 2266 ft 194 kts 87°
2026-04-27 17:22 32.13216 -81.13012 2773 ft 209 kts 68°
2026-04-27 17:23 32.14115 -81.11682 3297 ft 223 kts 32°
2026-04-27 17:23 32.15650 -81.11233 3828 ft 240 kts 356°
2026-04-27 17:23 32.17241 -81.11966 4390 ft 258 kts 323°
2026-04-27 17:23 32.18482 -81.13578 5036 ft 270 kts 310°
2026-04-27 17:24 32.19670 -81.15324 5844 ft 273 kts 311°
2026-04-27 17:24 32.20880 -81.17059 6720 ft 273 kts 313°
2026-04-27 17:24 32.22149 -81.18757 7469 ft 278 kts 315°
2026-04-27 17:24 32.23448 -81.20477 8153 ft 284 kts 314°
2026-04-27 17:25 32.24770 -81.22243 8808 ft 290 kts 314°
2026-04-27 17:25 32.26093 -81.24023 9454 ft 295 kts 313°
2026-04-27 17:25 32.27457 -81.25866 10055 ft 301 kts 313°
2026-04-27 17:25 32.28875 -81.27783 10284 ft 320 kts 313°
2026-04-27 17:26 32.30386 -81.29821 10491 ft 337 kts 313°
2026-04-27 17:26 32.31945 -81.31932 10979 ft 342 kts 313°
2026-04-27 17:26 32.33510 -81.34057 11595 ft 343 kts 312°
2026-04-27 17:26 32.35076 -81.36187 12296 ft 342 kts 312°
2026-04-27 17:27 32.36648 -81.38322 12918 ft 345 kts 312°
2026-04-27 17:27 32.38229 -81.40473 13618 ft 347 kts 313°
2026-04-27 17:27 32.39801 -81.42611 14290 ft 349 kts 312°
2026-04-27 17:27 32.41389 -81.44778 14990 ft 349 kts 313°
2026-04-27 17:28 32.42982 -81.46952 15694 ft 349 kts 312°
2026-04-27 17:28 32.44579 -81.49129 16335 ft 350 kts 312°
2026-04-27 17:28 32.48009 -81.53208 17582 ft 351 kts 330°
2026-04-27 17:29 32.50311 -81.54173 18063 ft 356 kts 349°
2026-04-27 17:29 32.52760 -81.54634 18647 ft 357 kts 351°
2026-04-27 17:29 32.55227 -81.55081 19137 ft 361 kts 351°
2026-04-27 17:29 32.57725 -81.55529 19649 ft 364 kts 351°
2026-04-27 17:30 32.60238 -81.55974 20184 ft 367 kts 351°
2026-04-27 17:30 32.65299 -81.56852 21307 ft 373 kts 351°
2026-04-27 17:30 32.67882 -81.57293 21832 ft 376 kts 351°
2026-04-27 17:31 32.70481 -81.57731 22340 ft 379 kts 351°
2026-04-27 17:31 32.73102 -81.58167 22826 ft 382 kts 351°
2026-04-27 17:31 32.75743 -81.58603 23299 ft 385 kts 351°
2026-04-27 17:31 32.78403 -81.59039 23769 ft 387 kts 351°
2026-04-27 17:32 32.81075 -81.59472 24170 ft 390 kts 351°
2026-04-27 17:32 32.86489 -81.60342 24922 ft 395 kts 351°
2026-04-27 17:32 32.89229 -81.60769 25300 ft 398 kts 353°
2026-04-27 17:33 32.92014 -81.60764 25664 ft 402 kts
2026-04-27 17:33 32.94815 -81.60493 26051 ft 406 kts
2026-04-27 17:33 32.97634 -81.60180 26419 ft 408 kts
2026-04-27 17:33 33.00472 -81.59874 26773 ft 411 kts
2026-04-27 17:34 33.03329 -81.59576 27154 ft 413 kts
2026-04-27 17:34 33.06176 -81.59284 27525 ft 415 kts
2026-04-27 17:34 33.09046 -81.58990 28022 ft 414 kts
2026-04-27 17:34 33.11914 -81.58698 28506 ft 413 kts
2026-04-27 17:35 33.14778 -81.58407 28924 ft 413 kts
2026-04-27 17:35 33.17636 -81.58115 29363 ft 412 kts
2026-04-27 17:35 33.20499 -81.57823 29765 ft 412 kts
2026-04-27 17:35 33.23359 -81.57530 30176 ft 412 kts
2026-04-27 17:36 33.26219 -81.57238 30539 ft 411 kts
2026-04-27 17:36 33.29059 -81.56948 30938 ft 408 kts
2026-04-27 17:36 33.31879 -81.56659 31381 ft 405 kts
2026-04-27 17:37 33.37597 -81.56073 31397 ft 424 kts
2026-04-27 17:37 33.40574 -81.55767 31249 ft 433 kts
2026-04-27 17:37 33.43588 -81.55454 31228 ft 434 kts
2026-04-27 17:38 33.49634 -81.54827 31225 ft 437 kts
2026-04-27 17:38 33.55694 -81.54200 31224 ft 437 kts
2026-04-27 17:39 33.61747 -81.53572 31225 ft 437 kts
2026-04-27 17:39 33.67807 -81.52943 31226 ft 437 kts
2026-04-27 17:40 33.73831 -81.52317 31220 ft 437 kts
2026-04-27 17:40 33.79896 -81.51686 31227 ft 437 kts
2026-04-27 17:41 33.85960 -81.51054 31230 ft 437 kts
2026-04-27 17:41 33.92020 -81.50422 31237 ft 437 kts
2026-04-27 17:42 33.98053 -81.50651 31261 ft 433 kts 348°
2026-04-27 17:42 34.03982 -81.52009 31230 ft 433 kts 347°
2026-04-27 17:43 34.09890 -81.53388 31232 ft 433 kts 347°
2026-04-27 17:43 34.15776 -81.54756 31231 ft 433 kts 347°
2026-04-27 17:44 34.21689 -81.56129 31224 ft 432 kts 347°
2026-04-27 17:44 34.27592 -81.57504 31305 ft 432 kts 347°
2026-04-27 17:45 34.33498 -81.58881 31306 ft 432 kts 347°
2026-04-27 17:45 34.39414 -81.60262 31308 ft 432 kts 347°
2026-04-27 17:46 34.45316 -81.61641 31296 ft 432 kts 347°
2026-04-27 17:46 34.51208 -81.63020 31249 ft 431 kts 347°
2026-04-27 17:47 34.57096 -81.64400 31249 ft 431 kts 347°
2026-04-27 17:47 34.62950 -81.65774 31237 ft 429 kts 347°
2026-04-27 17:48 34.68796 -81.67149 31246 ft 428 kts 347°
2026-04-27 17:48 34.74628 -81.68520 31236 ft 425 kts 347°
2026-04-27 17:49 34.80449 -81.69894 31242 ft 426 kts 347°
2026-04-27 17:49 34.86267 -81.71268 31247 ft 426 kts 347°
2026-04-27 17:50 34.92083 -81.72643 31246 ft 426 kts 347°
2026-04-27 17:50 35.00810 -81.74701 31245 ft 425 kts 347°
2026-04-27 17:51 35.06623 -81.76056 31245 ft 425 kts 347°
2026-04-27 17:51 35.12399 -81.77404 31238 ft 425 kts 347°
2026-04-27 17:52 35.18204 -81.78763 31255 ft 425 kts 347°
2026-04-27 17:52 35.23081 -81.79906 31263 ft 425 kts 346°
2026-04-27 17:53 35.29813 -81.81486 31262 ft 424 kts 346°
2026-04-27 17:53 35.35610 -81.82849 31274 ft 424 kts 346°
2026-04-27 17:54 35.41402 -81.84213 31275 ft 424 kts 346°
2026-04-27 17:54 35.47197 -81.85581 31279 ft 424 kts 346°
2026-04-27 17:55 35.53003 -81.86951 31272 ft 424 kts 346°
2026-04-27 17:55 35.58759 -81.88314 31262 ft 424 kts 346°
2026-04-27 17:56 35.64566 -81.89689 31251 ft 424 kts 346°
2026-04-27 17:56 35.70360 -81.91064 31247 ft 424 kts 346°
2026-04-27 17:57 35.76018 -81.92932 31267 ft 419 kts 333°
2026-04-27 17:57 35.81258 -81.96101 31201 ft 419 kts 331°
2026-04-27 17:58 35.86428 -81.99306 31198 ft 419 kts 331°
2026-04-27 17:58 35.91641 -82.02540 31214 ft 419 kts 331°
2026-04-27 17:59 35.96847 -82.05794 31203 ft 419 kts 331°
2026-04-27 17:59 36.02045 -82.09038 31190 ft 418 kts 331°
2026-04-27 18:00 36.06357 -82.11734 31181 ft 418 kts 331°
2026-04-27 18:00 36.11545 -82.14981 31157 ft 417 kts 331°
2026-04-27 18:01 36.16737 -82.18227 31159 ft 419 kts 331°
2026-04-27 18:01 36.21925 -82.21480 31174 ft 419 kts 331°
2026-04-27 18:02 36.27116 -82.24744 31148 ft 418 kts 330°
2026-04-27 18:02 36.32297 -82.28005 31155 ft 418 kts 330°
2026-04-27 18:03 36.37494 -82.31278 31160 ft 418 kts 330°
2026-04-27 18:03 36.42644 -82.34529 31155 ft 418 kts 330°
2026-04-27 18:04 36.47827 -82.37805 31157 ft 418 kts 330°
2026-04-27 18:04 36.53022 -82.41094 31152 ft 421 kts 330°
2026-04-27 18:05 36.58236 -82.44399 31132 ft 420 kts 330°
2026-04-27 18:05 36.63446 -82.47706 31125 ft 421 kts 330°
2026-04-27 18:06 36.68661 -82.51021 31142 ft 420 kts 330°
2026-04-27 18:06 36.73869 -82.54339 31157 ft 420 kts 330°
2026-04-27 18:07 36.79058 -82.57649 31167 ft 421 kts 330°
2026-04-27 18:07 36.83884 -82.61694 31186 ft 418 kts 321°
2026-04-27 18:08 36.88500 -82.66111 31182 ft 418 kts 320°
2026-04-27 18:08 36.93115 -82.70552 31169 ft 418 kts 320°
2026-04-27 18:09 36.97721 -82.74987 31165 ft 417 kts 320°
2026-04-27 18:09 37.02319 -82.79430 31175 ft 419 kts 320°
2026-04-27 18:10 37.06920 -82.83884 31159 ft 417 kts 320°